This is the latest recevied weather packets stored in our database for station/object K7SPS-10. If no packets are shown the sender has not sent any weather packets the latest 10 day(s).
| Time | Temp. | Humidity | Pressure | Rain* | Wind** | Luminosity | Snow |
|---|---|---|---|---|---|---|---|
| 1777845459 | 28.33° C | 18% | 1010.5 hPa | 0 mm | - | 657 W/m² | - |
| 1777845156 | 28.33° C | 19% | 1010.6 hPa | 0 mm | - | 663 W/m² | - |
| 1777844854 | 27.78° C | 19% | 1010.6 hPa | 0 mm | - | 674 W/m² | - |
| 1777844551 | 28.33° C | 20% | 1010.8 hPa | 0 mm | - | 679 W/m² | - |
| 1777844249 | 27.78° C | 20% | 1010.8 hPa | 0 mm | - | 685 W/m² | - |
| 1777843946 | 27.78° C | 20% | 1010.9 hPa | 0 mm | - | 694 W/m² | - |
| 1777843643 | 28.33° C | 19% | 1011 hPa | 0 mm | - | 702 W/m² | - |
| 1777843340 | 28.33° C | 21% | 1011.2 hPa | 0 mm | - | 710 W/m² | - |
| 1777843038 | 27.78° C | 20% | 1011 hPa | 0 mm | - | 714 W/m² | - |
| 1777842734 | 27.78° C | 21% | 1011.3 hPa | 0 mm | - | 725 W/m² | - |
| 1777842429 | 27.78° C | 21% | 1011.4 hPa | 0 mm | - | 734 W/m² | - |
| 1777842127 | 27.78° C | 20% | 1011.4 hPa | 0 mm | - | 742 W/m² | - |
| 1777841822 | 27.22° C | 22% | 1011.5 hPa | 0 mm | - | 751 W/m² | - |
| 1777841518 | 27.22° C | 22% | 1011.5 hPa | 0 mm | - | 758 W/m² | - |
| 1777841215 | 26.67° C | 24% | 1011.5 hPa | 0 mm | - | 760 W/m² | - |
| 1777840913 | 26.67° C | 23% | 1011.6 hPa | 0 mm | - | 770 W/m² | - |
| 1777840609 | 26.67° C | 26% | 1011.6 hPa | 0 mm | - | 773 W/m² | - |
| 1777840307 | 26.67° C | 26% | 1011.7 hPa | 0 mm | - | 781 W/m² | - |
| 1777840004 | 26.11° C | 27% | 1011.6 hPa | 0 mm | - | 784 W/m² | - |
| 1777839702 | 26.11° C | 28% | 1011.8 hPa | 0 mm | - | 789 W/m² | - |
| 1777839400 | 26.11° C | 30% | 1012 hPa | 0 mm | - | 788 W/m² | - |
| 1777839097 | 26.11° C | 30% | 1012 hPa | 0 mm | - | 791 W/m² | - |
| 1777838793 | 25.56° C | 30% | 1012.2 hPa | 0 mm | - | 793 W/m² | - |
| 1777838490 | 25.56° C | 30% | 1012.3 hPa | 0 mm | - | 792 W/m² | - |
| 1777838187 | 25.56° C | 29% | 1012.3 hPa | 0 mm | - | 794 W/m² | - |
* Rain latest hour (hover to see other rain measurements)
** Current wind speed in m/s (hover to see current wind gust speed)